Wind_Speed
37 37 38 37 37 36 34 33 33 33 32 33 34 33 34 34 34 34 35 32 31 33 33 33 33 33 30 27 30 28 32 25 24 24 22 20 19 14 17 16 18 19 19 21 20 21 18
39 39 40 39 37 36 35 36 36 35 35 34 34 35 35 34 33 33 34 34 33 34 33 33 33 33 33 33 24 22 28 25 22 22 23 16 15 14 23 18 18 20 21 21 19 19 20
43 42 42 42 41 40 38 38 37 37 37 37 36 37 36 35 36 35 35 36 35 33 35 34 34 35 34 31 28 25 27 25 22 21 23 19 13 19 13 16 13 16 20 22 22 23 24
44 45 48 46 44 43 41 41 40 39 38 38 38 37 37 37 35 35 35 35 33 33 32 34 34 36 39 30 31 31 26 26 22 21 23 21 20 23 21 19 23 20 21 27 21 21 23
50 44 44 45 45 42 42 42 42 40 40 39 39 38 37 36 36 34 34 34 36 35 33 32 32 35 37 29 28 28 26 16 15 16 20 23 25 24 18 18 21 18 24 24 21 18 19
47 46 47 48 47 44 43 40 41 41 40 39 37 37 36 35 34 32 29 29 29 31 31 31 33 31 24 16 23 18 19 15 16 12 14 15 19 18 17 18 26 22 24 18 19 13 12
49 46 46 45 45 43 37 37 37 37 36 36 35 34 32 31 31 30 29 29 29 23 30 29 18 28 12 9 22 20 18 20 18 16 19 19 19 22 22 21 22 23 24 23 21 15 18
34 35 33 34 33 35 39 37 35 36 38 35 34 33 33 32 32 31 30 27 29 32 38 35 36 38 37 33 33 28 19 20 18 22 20 21 34 24 22 23 23 23 24 24 23 20 21
34 34 33 34 33 34 35 34 36 36 35 33 32 32 31 31 30 29 26 27 27 26 35 40 35 35 30 26 36 32 27 25 27 26 25 31 29 25 26 27 26 26 26 24 24 21 24
33 33 33 33 31 31 31 31 31 31 31 30 28 28 27 27 28 25 23 24 22 22 22 32 24 20 23 25 33 27 29 31 32 35 27 32 24 27 28 23 21 29 24 24 25 24 25
37 37 37 36 35 34 32 29 29 28 26 26 25 24 24 24 24 18 26 16 14 10 6 6 10 16 11 15 10 8 13 24 37 33 29 41 29 28 31 32 27 32 23 23 24 25 24
38 38 37 37 35 35 35 35 33 32 31 31 30 27 25 24 23 23 17 13 10 6 10 7 8 7 9 10 18 14 12 20 20 30 32 39 29 25 22 23 24 23 24 24 24 23 20
33 35 36 36 36 34 35 34 33 33 33 32 33 30 27 26 25 25 19 15 13 15 8 15 19 12 10 11 10 14 13 12 11 10 23 35 40 36 24 22 22 15 15 11 11 17 16
33 33 30 30 33 32 35 33 32 31 29 29 29 32 30 28 26 25 22 21 16 20 35 8 5 8 10 7 11 17 14 16 16 16 14 16 19 24 33 39 27 25 21 15 10 9 14
39 40 37 36 35 34 32 33 29 29 26 23 26 28 30 26 27 29 24 24 28 32 27 21 22 30 30 25 21 18 16 16 17 17 13 12 30 20 11 15 29 29 30 24 26 29 19
38 37 38 43 43 39 37 37 35 32 28 27 29 27 23 20 21 24 28 35 36 31 26 21 25 24 30 28 23 23 27 28 23 15 14 15 18 18 13 14 18 27 22 21 7 5 11
45 44 38 35 37 37 45 38 34 35 34 29 31 35 35 28 26 26 34 43 43 39 27 27 25 23 27 26 26 25 25 23 17 18 21 16 21 23 15 18 18 16 17 15 9 6 2
36 42 38 36 38 35 34 35 40 36 37 37 33 42 38 35 32 37 36 35 33 35 27 26 32 33 22 22 22 23 26 27 14 13 11 13 8 17 22 17 16 15 14 21 18 15 14
36 36 32 32 31 33 36 35 32 36 40 38 38 40 41 36 35 39 38 35 35 30 32 30 27 25 23 27 26 28 22 15 17 20 9 5 8 16 18 17 17 21 20 9 16 22 21
33 34 33 32 27 26 27 28 30 31 36 41 40 40 35 43 39 34 33 32 31 30 32 31 30 28 27 25 27 26 24 22 15 12 17 17 13 15 17 17 19 20 20 22 16 16 20
29 31 30 28 25 26 26 26 28 30 30 36 39 47 45 27 47 50 35 28 28 35 33 30 31 27 23 26 24 27 25 25 21 16 18 10 19 24 27 29 31 37 31 30 30 31 26
23 24 26 27 25 24 24 24 25 27 27 34 42 32 40 42 46 48 54 40 33 23 28 23 21 26 24 29 25 28 24 24 23 15 19 16 22 22 22 25 27 30 33 36 33 33 31
23 25 27 28 27 25 24 24 23 24 28 36 37 38 42 46 45 42 45 42 37 27 23 21 24 23 26 21 30 29 22 20 20 12 13 16 20 17 25 23 25 26 37 33 32 30 31
21 24 26 26 26 27 27 27 28 26 29 33 35 36 31 34 25 39 35 33 30 23 22 16 16 15 18 22 20 25 26 20 16 20 15 15 18 19 20 21 18 33 26 25 26 27 27
21 22 22 21 21 21 20 23 24 24 27 30 28 28 33 28 40 27 27 29 25 24 22 19 23 24 27 22 19 16 20 18 28 29 28 32 26 27 28 28 28 28 31 23 26 33 30
18 18 18 18 19 20 20 20 21 23 25 27 25 23 26 38 31 16 22 26 25 29 26 20 21 23 15 17 13 9 18 17 17 23 29 33 36 36 33 22 21 43 35 27 27 32 33
16 16 17 17 17 17 17 18 19 20 24 21 29 29 27 20 26 13 14 9 15 14 20 20 21 21 21 14 10 14 19 16 23 21 23 21 35 38 41 35 35 42 28 28 15 28 14
15 16 15 15 15 14 14 15 16 16 17 16 18 18 13 13 13 15 13 14 18 26 19 20 19 16 18 16 11 12 14 19 24 27 27 26 17 20 37 33 26 23 22 25 31 22 18
14 14 14 12 12 13 12 13 13 11 11 11 7 11 15 16 12 16 17 19 18 17 18 20 21 17 15 13 13 9 15 16 18 28 24 35 34 31 24 12 30 20 19 22 16 13 19
Wind_Direction
268 270 269 270 269 270 271 269 270 272 272 274 275 276 276 278 280 280 284 284 285 287 287 287 288 287 282 278 279 282 279 278 283 286 286 289 285 288 283 275 272 264 267 274 271 273 268
263 264 268 268 267 267 268 270 271 272 272 274 276 276 276 277 276 277 281 284 286 287 287 286 286 284 285 284 287 282 281 284 288 285 281 278 281 272 265 271 273 267 267 269 259 263 265
259 264 267 267 267 267 267 267 268 270 270 272 274 276 278 278 277 278 276 280 284 284 286 285 283 283 279 284 282 279 282 286 283 280 275 266 264 264 260 275 276 265 271 276 269 268 260
258 261 268 267 265 265 265 267 267 266 267 268 271 273 275 277 278 278 279 279 279 279 279 281 281 281 280 283 286 290 285 281 281 273 272 268 255 268 270 268 271 272 275 274 276 268 260
265 266 269 269 266 263 264 267 265 265 268 270 272 272 273 273 274 276 277 277 279 280 280 279 279 279 283 284 288 285 284 282 280 274 258 257 258 267 264 258 272 267 259 267 275 280 242
264 268 268 267 265 264 264 264 266 268 269 271 271 272 273 274 274 275 276 278 282 282 279 276 274 274 290 278 262 249 280 283 260 243 248 253 257 258 249 241 248 265 264 282 262 268 243
265 267 267 265 266 262 264 264 266 267 270 270 269 270 271 273 272 272 276 281 288 293 269 268 266 265 250 294 275 259 268 270 248 238 239 240 243 238 243 245 256 262 267 272 268 270 276
263 264 264 264 267 264 261 262 266 269 271 270 270 269 268 269 271 273 274 276 267 274 275 272 271 264 268 265 255 255 242 250 246 245 244 244 240 245 252 255 258 254 258 262 266 271 268
258 261 263 265 265 264 265 262 262 264 266 266 267 267 267 267 268 269 269 265 275 274 278 280 278 274 273 260 261 256 246 239 243 248 242 240 248 253 256 252 253 250 252 259 264 269 268
256 258 259 262 263 265 264 264 263 263 261 260 261 262 263 263 263 263 266 265 269 278 288 284 266 261 256 241 256 252 243 239 240 245 244 247 250 249 244 249 251 256 251 261 266 267 265
256 256 258 258 261 261 261 261 261 260 258 258 259 261 260 258 261 256 256 264 259 266 288 290 181 223 239 232 246 244 225 229 237 238 237 248 246 250 254 251 250 258 256 265 269 274 280
254 253 254 254 254 254 255 256 255 253 255 255 254 253 253 251 250 249 251 239 218 205 244 260 233 272 240 241 233 228 245 228 221 236 236 244 240 242 254 244 247 261 260 260 260 257 256
251 250 251 251 252 252 253 254 256 258 258 256 256 252 247 246 241 243 226 204 191 224 249 263 238 249 241 242 253 248 244 244 225 204 235 245 241 228 237 251 249 261 246 242 245 231 249
247 247 245 249 252 253 253 254 254 256 257 259 260 256 250 242 237 236 213 197 217 240 237 197 284 257 235 232 257 259 239 239 245 228 248 251 247 235 239 230 238 232 229 229 245 251 267
250 245 246 245 247 249 252 249 250 255 254 254 262 264 260 250 238 237 212 210 223 235 247 258 263 261 256 257 270 275 268 258 278 219 248 277 249 246 231 231 229 237 237 241 251 269 281
250 252 251 249 248 251 253 255 249 249 247 246 250 247 247 255 248 239 224 226 235 239 249 261 269 262 264 262 262 253 255 263 268 259 266 284 272 248 231 232 224 234 239 250 213 230 246
253 256 256 251 250 252 251 251 252 241 244 236 244 254 250 248 240 230 222 231 238 243 245 255 268 266 260 267 259 270 269 266 270 258 265 273 254 258 235 231 234 235 241 229 241 188 229
251 251 251 254 255 253 253 251 248 245 243 250 249 248 250 248 234 236 234 238 245 247 249 258 260 262 260 261 272 275 268 264 253 233 259 252 284 269 241 241 239 252 244 256 271 241 240
257 257 254 256 259 260 254 252 250 245 239 244 245 248 239 237 229 239 247 248 248 247 248 249 256 249 252 260 268 268 270 261 262 230 240 220 246 272 262 256 252 262 266 302 278 269 248
258 253 256 258 258 253 250 245 242 244 239 238 244 250 248 231 237 238 246 241 247 247 251 246 247 257 249 262 251 262 259 266 260 234 244 231 264 260 271 273 277 298 299 278 290 287 298
252 248 248 252 254 252 248 245 246 241 237 238 239 244 249 237 239 243 234 241 248 246 242 244 242 250 240 249 256 261 260 253 263 232 258 249 256 263 267 268 271 278 276 272 267 267 256
238 239 241 248 255 255 251 248 244 240 233 234 238 227 240 257 257 244 242 236 240 241 234 240 241 239 250 256 247 259 267 258 251 260 249 243 265 269 268 264 265 268 271 266 266 271 275
235 238 244 251 255 254 249 248 244 238 236 236 240 244 249 247 240 228 233 237 227 218 242 244 235 236 234 249 242 249 253 257 245 251 251 241 250 249 257 264 266 267 254 268 272 272 269
242 242 245 249 253 256 252 246 246 245 237 239 245 248 261 262 224 205 214 214 228 233 233 240 259 250 247 250 254 255 250 250 251 246 252 259 251 261 271 276 273 260 267 263 272 273 270
247 247 249 248 245 247 245 242 243 241 236 243 239 239 239 246 242 234 216 212 220 223 229 232 234 243 256 249 260 271 266 266 261 256 251 240 253 262 260 259 263 270 258 264 264 273 271
246 248 244 240 244 245 245 246 243 243 238 244 241 242 230 238 219 219 204 216 220 223 227 222 228 240 225 251 253 248 249 254 252 254 249 243 243 245 247 245 252 259 269 266 266 276 263
242 240 239 242 245 244 244 240 244 242 237 250 231 235 238 235 209 206 222 250 222 207 215 217 226 232 246 229 222 244 252 252 258 259 254 242 232 234 240 242 253 256 262 275 279 271 263
234 237 240 241 239 240 238 236 241 246 248 250 239 224 216 230 228 224 217 236 232 226 215 211 191 212 209 198 216 231 255 257 260 258 263 271 264 254 246 252 253 267 267 261 268 272 284
230 229 231 233 234 230 229 227 232 233 238 236 209 195 212 230 224 230 232 232 224 211 218 221 205 200 216 213 220 233 249 260 262 267 260 262 262 277 259 276 244 276 263 258 306 300 259
Height
3125 3125 3126 3128 3128 3129 3130 3130 3130 3131 3131 3131 3131 3131 3131 3131 3132 3130 3130 3129 3128 3129 3129 3129 3127 3126 3125 3127 3125 3125 3125 3126 3125 3125 3126 3127 3126 3127 3127 3128 3128 3126 3125 3125 3124 3123 3123
3117 3118 3119 3120 3121 3122 3122 3124 3125 3124 3125 3125 3125 3125 3125 3125 3125 3125 3124 3124 3123 3123 3123 3123 3122 3120 3119 3119 3120 3120 3118 3120 3120 3120 3121 3122 3124 3123 3120 3121 3123 3122 3120 3118 3117 3118 3120
3108 3109 3111 3111 3113 3114 3114 3115 3116 3117 3117 3117 3118 3119 3118 3119 3119 3119 3118 3117 3118 3116 3118 3116 3116 3113 3112 3114 3115 3115 3115 3114 3115 3115 3115 3117 3119 3116 3119 3117 3117 3115 3114 3113 3112 3112 3112
3098 3100 3103 3103 3105 3106 3106 3107 3108 3109 3109 3109 3110 3110 3111 3111 3112 3112 3112 3112 3110 3111 3111 3110 3109 3106 3102 3109 3109 3108 3109 3109 3109 3110 3110 3111 3112 3111 3112 3114 3112 3111 3111 3107 3107 3107 3107
3089 3091 3093 3095 3096 3097 3097 3098 3099 3100 3102 3102 3103 3103 3103 3104 3105 3104 3105 3104 3104 3103 3103 3103 3104 3099 3098 3101 3102 3102 3102 3104 3104 3104 3104 3106 3105 3106 3107 3109 3109 3107 3102 3102 3101 3101 3102
3079 3082 3083 3085 3086 3088 3089 3090 3091 3092 3093 3094 3094 3096 3097 3097 3098 3098 3098 3097 3098 3097 3095 3097 3097 3097 3097 3096 3097 3097 3098 3098 3100 3100 3100 3102 3100 3100 3102 3103 3101 3100 3097 3095 3096 3099 3098
3070 3071 3074 3076 3076 3077 3079 3081 3082 3083 3084 3085 3088 3089 3089 3090 3091 3092 3094 3093 3095 3091 3087 3090 3093 3087 3091 3095 3091 3091 3094 3095 3095 3095 3097 3097 3098 3096 3096 3097 3096 3097 3095 3094 3094 3094 3094
3060 3062 3064 3066 3068 3069 3070 3072 3074 3075 3077 3079 3080 3081 3082 3084 3084 3086 3086 3087 3082 3086 3077 3080 3079 3079 3082 3086 3082 3085 3090 3093 3093 3090 3092 3095 3089 3091 3093 3093 3092 3091 3090 3090 3090 3091 3090
3053 3054 3056 3058 3059 3061 3063 3064 3065 3067 3068 3069 3072 3073 3075 3077 3077 3080 3081 3079 3081 3079 3071 3067 3071 3070 3073 3077 3072 3074 3082 3083 3085 3085 3086 3083 3085 3088 3088 3086 3087 3085 3086 3086 3085 3085 3084
3045 3046 3048 3051 3052 3053 3055 3057 3058 3059 3062 3062 3063 3066 3068 3070 3072 3073 3073 3074 3075 3077 3070 3061 3061 3059 3064 3067 3063 3067 3069 3074 3074 3075 3080 3076 3080 3081 3081 3081 3084 3078 3083 3082 3081 3081 3076
3036 3038 3040 3042 3045 3046 3047 3049 3052 3053 3054 3057 3057 3060 3062 3062 3065 3068 3066 3071 3071 3075 3073 3061 3056 3054 3057 3060 3060 3062 3062 3063 3062 3067 3077 3060 3072 3074 3073 3075 3079 3073 3078 3076 3076 3074 3074
3026 3029 3032 3033 3036 3038 3040 3041 3044 3046 3047 3049 3051 3053 3056 3057 3060 3061 3064 3067 3071 3076 3063 3057 3054 3054 3056 3054 3056 3055 3058 3057 3056 3060 3063 3058 3064 3065 3066 3069 3070 3070 3071 3071 3069 3070 3067
3019 3020 3023 3027 3028 3030 3032 3034 3035 3037 3039 3041 3044 3046 3049 3051 3053 3056 3059 3065 3068 3065 3059 3051 3051 3053 3054 3054 3053 3053 3055 3054 3054 3055 3055 3057 3052 3055 3061 3063 3065 3067 3068 3066 3062 3061 3052
3011 3013 3015 3018 3021 3022 3024 3028 3029 3031 3033 3035 3037 3038 3043 3044 3047 3051 3054 3058 3058 3044 3055 3047 3052 3053 3054 3052 3051 3055 3052 3053 3051 3051 3051 3051 3049 3047 3049 3052 3059 3060 3063 3061 3054 3052 3050
3002 3005 3008 3011 3013 3016 3017 3020 3023 3026 3027 3029 3030 3031 3036 3039 3041 3046 3048 3049 3044 3040 3050 3048 3049 3049 3051 3050 3051 3052 3050 3049 3049 3045 3049 3045 3042 3046 3045 3048 3053 3052 3054 3057 3053 3051 3053
2993 2996 3000 3001 3005 3007 3010 3013 3016 3020 3023 3024 3025 3026 3028 3033 3036 3037 3041 3036 3037 3040 3045 3045 3045 3047 3044 3045 3046 3047 3046 3048 3047 3045 3045 3044 3044 3039 3041 3042 3045 3047 3052 3051 3048 3049 3046
2984 2988 2991 2992 2995 2999 3001 3005 3009 3012 3016 3017 3019 3018 3023 3027 3030 3029 3026 3027 3030 3034 3041 3043 3041 3042 3041 3041 3040 3040 3043 3045 3042 3041 3043 3043 3043 3038 3039 3035 3040 3043 3042 3043 3045 3044 3045
2976 2978 2981 2984 2986 2989 2993 2995 2999 3004 3009 3008 3010 3011 3017 3018 3021 3018 3019 3020 3027 3028 3034 3035 3036 3035 3036 3038 3036 3037 3039 3039 3037 3040 3040 3039 3038 3034 3033 3032 3036 3038 3038 3040 3040 3041 3041
2967 2970 2972 2975 2977 2981 2984 2986 2990 2994 2998 3002 3001 3003 3005 3007 3006 3008 3012 3015 3019 3023 3024 3028 3029 3029 3030 3032 3033 3033 3034 3030 3032 3035 3035 3035 3035 3032 3029 3032 3032 3034 3035 3037 3037 3036 3036
2959 2962 2965 2968 2971 2973 2975 2978 2981 2985 2989 2992 2995 2995 2996 2994 2998 3003 3006 3009 3012 3016 3018 3021 3021 3022 3024 3024 3026 3027 3029 3026 3029 3031 3030 3030 3031 3033 3030 3028 3030 3031 3033 3036 3035 3036 3031
2951 2954 2957 2961 2963 2966 2968 2969 2973 2977 2981 2984 2984 2983 2986 2987 2989 2993 3000 3004 3005 3007 3011 3013 3014 3015 3017 3020 3021 3023 3024 3027 3022 3028 3026 3027 3028 3029 3027 3027 3028 3026 3031 3031 3031 3029 3031
2945 2948 2951 2954 2957 2959 2961 2963 2967 2969 2974 2974 2974 2973 2977 2982 2985 2987 2990 2994 2998 3000 3004 3005 3006 3008 3012 3012 3016 3019 3017 3018 3017 3021 3021 3022 3020 3022 3022 3023 3024 3023 3022 3021 3024 3023 3022
2941 2943 2946 2949 2951 2952 2955 2957 2960 2963 2966 2964 2967 2970 2973 2974 2972 2974 2976 2982 2988 2994 2998 2996 3001 3001 3004 3007 3006 3009 3011 3012 3014 3014 3015 3018 3018 3019 3016 3019 3018 3017 3010 3014 3015 3016 3015
2935 2938 2940 2942 2944 2946 2948 2950 2952 2955 2957 2959 2962 2966 2966 2964 2957 2961 2968 2977 2984 2988 2993 2995 2993 2995 2998 3001 3003 3004 3005 3006 3009 3010 3013 3014 3015 3016 3014 3016 3012 3004 3009 3008 3009 3007 3008
2930 2932 2934 2936 2938 2939 2941 2943 2946 2948 2951 2952 2955 2959 2960 2956 2959 2963 2965 2971 2978 2983 2987 2989 2989 2991 2993 2997 3001 3001 3002 3003 3001 3003 3005 3009 3011 3011 3011 3009 3005 3002 2997 3004 3003 3001 3000
2925 2927 2929 2931 2933 2935 2937 2939 2941 2944 2945 2946 2950 2952 2954 2956 2956 2954 2959 2966 2969 2974 2980 2979 2981 2986 2989 2993 2997 2997 2997 2997 2997 2996 2997 3000 3003 3006 3004 3001 2995 2989 2992 2999 2999 2993 2994
2922 2924 2925 2927 2929 2930 2932 2934 2936 2938 2939 2941 2944 2947 2949 2950 2951 2954 2958 2958 2962 2967 2972 2975 2977 2980 2986 2989 2991 2994 2994 2994 2993 2993 2992 2991 2990 2992 2988 2991 2988 2982 2990 2989 2991 2990 2988
2918 2920 2922 2923 2925 2927 2929 2931 2933 2935 2936 2939 2939 2941 2944 2947 2949 2951 2955 2958 2961 2965 2967 2969 2974 2976 2980 2983 2986 2988 2988 2988 2988 2987 2987 2986 2987 2985 2987 2987 2986 2983 2986 2988 2982 2982 2980
2915 2917 2919 2921 2923 2925 2927 2929 2931 2933 2935 2937 2939 2940 2942 2945 2948 2949 2952 2955 2957 2963 2964 2966 2967 2969 2975 2977 2979 2981 2984 2983 2983 2980 2984 2981 2982 2981 2982 2976 2977 2979 2979 2976 2972 2971 2976